Location: Florence
(33.9745°N, 118.2481°W)
Time: 18:50:38
(UTC+00:00)

OAO 3 Rocket - Pass Details

Date: 23 March 2023
Orbit: 625 x 677 km, 35.0° (Epoch: 05 June)

Event Time Altitude Azimuth Distance (km) Brightness Sun altitude
Exits shadow 13:06:07 13° 279° (W) 1,922 5.0 -10.5°
Maximum altitude 13:10:32 70° 197° (SSW) 718 3.3 -9.6°
Drops below altitude 10° 13:15:26 10° 114° (ESE) 2,102 6.8 -8.5°
Sets 13:17:49 0° 112° (ESE) 3,013 7.8 -8.1°
